User: anonymous   Login
Location: Bushey
(51.6333°N, 0.3667°W)
Time: 19:55:36
(UTC+00:00)
Language:

SKYMED 2 - Orbit

View from above orbital plane
View from above orbital plane
View from above satellite
View from above satellite

Ground track
Ground track

The orbit data is extracted from the following two-line orbital elements,

1 32376U 07059A   21136.47352379  .00000179  00000-0  29060-4 0  9993
2 32376  97.8891 320.8238 0001563  94.6832 265.4582 14.82156580726904
Epoch (UTC): 16 May 2021 11:21:52
Eccentricity: 0.0001563
inclination: 97.8891°
perigee height: 621 km
apogee height: 623 km
right ascension of ascending node: 320.8238°
argument of perigee: 94.6832°
revolutions per day: 14.82156580
mean anomaly at epoch: 265.4582°
orbit number at epoch: 72690

The dashed part of the orbit path shows where the satellite is in the earth's shadow,  

DLR